Regional Weather Roundup
Issued by NWS Green Bay, WI

Home | Current Version | Previous Version | Graphics & Text | Print | Product List | Glossary Off
Versions: 1 2 3 4 5 6 7 8 9 10 11 12 13 14 15 16 17 18 19 20 21 22 23 24 25 26 27 28 29 30 31 32 33 34 35 36 37 38 39 40 41 42 43 44 45 46 47 48 49 50

000
ASUS43 KGRB 282359
RWRGRB

NORTH-CENTRAL AND NORTHEAST WISCONSIN REGIONAL WEATHER ROUNDUP
NATIONAL WEATHER SERVICE GREEN BAY WI
700 PM CDT MON JUL 28 2014

WIZ005-009-010>012-018-019-290100-
NORTH CENTRAL WISCONSIN

CITY           SKY/WX    TMP DP  RH WIND       PRES   REMARKS
IRONWOOD       NOT AVBL
MANITOWISH WTR NOT AVBL
ARBOR VITAE    NOT AVBL
EAGLE RIVER    NOT AVBL
LAND O LAKES   NOT AVBL
RHINELANDER    MOSUNNY   66  53  63 NW5       30.09F
PHILLIPS       CLOUDY    65  55  68 CALM      30.10F
ANTIGO         NOT AVBL
TOMAHAWK       NOT AVBL
MERRILL        NOT AVBL
$$

WIZ013-073-290100-
NORTHEAST WISCONSIN

CITY           SKY/WX    TMP DP  RH WIND       PRES   REMARKS
IRON MOUNTAIN  CLOUDY    68  51  54 NW5       30.03F
MARINETTE      PTSUNNY   66  55  68 CALM      30.02S
$$

WIZ017-030-035>037-045-290100-
CENTRAL WISCONSIN

CITY           SKY/WX    TMP DP  RH WIND       PRES   REMARKS
MEDFORD        NOT AVBL
WAUSAU         CLOUDY    69  51  52 NW8       30.07F
MOSINEE        CLOUDY    68  52  56 NW8       30.10
MARSHFIELD     CLOUDY    70  54  56 NW9       30.10S
WISC RAPIDS    CLOUDY    71  52  50 NW8       30.10S
STEVENS POINT  NOT AVBL
WAUPACA        CLOUDY    72  51  46 N5        30.06F
SHAWANO        PTSUNNY   69  55  59 CALM      30.06S
CLINTONVILLE   CLOUDY    70  50  49 N5        30.06S
$$

WIZ038-039-048-051-290100-
FOX VALLEY

CITY           SKY/WX    TMP DP  RH WIND       PRES   REMARKS
NWS GREEN BAY  PTSUNNY   69  53  56 NW5       30.04F
APPLETON       PTSUNNY   68  50  52 N7        30.06F
OSHKOSH        CLOUDY    71  51  49 N12       30.05S
FOND DU LAC    CLOUDY    71  51  49 N9        30.05F
$$

WIZ022-050-052-290100-
EAST CENTRAL WISCONSIN

CITY           SKY/WX    TMP DP  RH WIND       PRES   REMARKS
STURGEON BAY   MOSUNNY   64  50  59 S6        30.04F
MANITOWOC      NOT AVBL
SHEBOYGAN      CLOUDY    62  50  64 S3        30.06S
$$

LMZ563-521-522-541>543-290100-
LAKESHORE

STATION/POSITION TIME  TEMP    WIND        PRES    VSBY  WAVE
                       AIR SEA DIR/SP/G                  HT/PER
                 (UTC) (F)     (DEG/KT/KT) (MB)    (MI)  (FT/S)
SHEBOYGAN LKSHOR 2300   59     190/  4/  4 1018.2F
KEWAUNEE LKSHORE 2300   56     180/  7/  8 1018.3F
NORTHPORT PIER   2300   68      CALM  /  3 1016.3F
N MID LAKE BUOY  2300   55 52  210/  8/  8 1016.3F         0
S GREEN BAY BUOY 2300   67 67  240/  4     1018.0F
CHAMBERS ISLAND  2300   66     190/  4/  8 1016.9S
MENOMINEE LKSHOR 2300   66     190/  4/  6 1017.4F
$$



USA.gov is the U.S. government's official web portal to all federal, state and local government web resources and services.